VE7EY Weather Reports


Display with metric or nautical units.
time (UTC)temp
F
wind
direction
speed
MPH
gust
MPH
rain 1hr
in
rain 24hr
in
rain mn
in
humidity
%
barometer
mb
20260505021538 71 148 0.0 0.0 0.00 0.00 0.00 57 1007.0
20260505020240 72 222 0.0 3.0 0.00 0.00 0.00 56 1007.1
20260505020038 71 229 0.0 3.0 0.00 0.00 0.00 56 1007.0
20260505014600 71 263 1.0 4.0 0.00 0.00 0.00 57 1007.0
20260505013242 70 267 2.0 4.0 0.00 0.00 0.00 58 1007.3
20260505013008 70 270 2.0 4.0 0.00 0.00 0.00 58 1007.1
20260505011518 69 248 3.0 6.0 0.00 0.00 0.00 60 1007.2
20260505010245 70 264 4.0 7.0 0.00 0.00 0.00 57 1007.5
20260505010043 70 280 4.0 7.0 0.00 0.00 0.00 55 1007.2
20260505004508 70 279 4.0 6.0 0.00 0.00 0.00 54 1007.3
20260505003220 70 261 4.0 6.0 0.00 0.00 0.00 55 1007.6
20260505003115 70 255 3.0 6.0 0.00 0.00 0.00 57 1007.4
20260505001510 70 262 4.0 7.0 0.00 0.00 0.00 53 1007.5
20260505000223 70 269 5.0 7.0 0.00 0.00 0.00 54 1007.7
20260505000005 70 260 5.0 7.0 0.00 0.00 0.00 53 1007.6
20260504234511 70 270 4.0 6.0 0.00 0.00 0.00 51 1007.7
20260504233228 70 274 4.0 8.0 0.00 0.00 0.00 51 1007.9
20260504233011 70 280 4.0 8.0 0.00 0.00 0.00 50 1007.9
20260504231553 70 261 4.0 7.0 0.00 0.00 0.00 48 1007.8
20260504230228 70 266 4.0 7.0 0.00 0.00 0.00 48 1008.2
20260504230051 70 286 4.0 6.0 0.00 0.00 0.00 47 1008.1
20260504224603 69 259 2.0 5.0 0.00 0.00 0.00 49 1008.1
20260504223221 69 240 3.0 5.0 0.00 0.00 0.00 52 1008.3
20260504223125 68 266 3.0 5.0 0.00 0.00 0.00 53 1008.2
20260504221509 67 257 2.0 6.0 0.00 0.00 0.00 58 1008.3
20260504220252 67 276 5.0 7.0 0.00 0.00 0.00 60 1008.6
20260504220036 66 258 4.0 6.0 0.00 0.00 0.00 60 1008.4
20260504214518 66 284 3.0 7.0 0.00 0.00 0.00 63 1008.4
20260504213225 67 226 4.0 6.0 0.00 0.00 0.00 58 1008.6
20260504213024 67 231 4.0 6.0 0.00 0.00 0.00 57 1008.6
20260504211535 67 264 2.0 6.0 0.00 0.00 0.00 59 1008.7
20260504210229 68 264 4.0 6.0 0.00 0.00 0.00 58 1008.9
20260504210016 67 275 3.0 5.0 0.00 0.00 0.00 60 1008.7
20260504204604 66 249 2.0 5.0 0.00 0.00 0.00 64 1008.9
20260504203230 66 269 3.0 5.0 0.00 0.00 0.00 66 1009.0
20260504203108 65 263 2.0 5.0 0.00 0.00 0.00 69 1008.9
20260504201506 66 276 1.0 4.0 0.00 0.00 0.00 73 1009.0
20260504200246 66 268 2.0 3.0 0.00 0.00 0.00 74 1009.2
20260504200054 66 288 1.0 3.0 0.00 0.00 0.00 75 1009.1
20260504194531 65 283 2.0 4.0 0.00 0.00 0.00 70 1009.0
20260504193251 65 269 1.0 4.0 0.00 0.00 0.00 78 1009.3
20260504193011 64 262 1.0 4.0 0.00 0.00 0.00 77 1009.2
20260504191525 64 257 3.0 5.0 0.00 0.00 0.00 75 1009.1
20260504190233 65 229 2.0 5.0 0.00 0.00 0.00 75 1009.3
20260504190008 64 258 2.0 5.0 0.00 0.00 0.00 75 1009.1
20260504184528 65 257 3.0 6.0 0.00 0.00 0.00 74 1009.2
20260504183249 64 241 3.0 5.0 0.00 0.00 0.00 71 1009.4
20260504183104 64 274 3.0 6.0 0.00 0.00 0.00 70 1009.2
20260504181544 63 266 3.0 5.0 0.00 0.00 0.00 74 1009.2
20260504180236 63 252 4.0 7.0 0.00 0.00 0.00 71 1009.3
20260504180024 62 259 3.0 5.0 0.00 0.00 0.00 75 1009.2
20260504174537 62 255 3.0 6.0 0.00 0.00 0.00 73 1009.2
20260504173226 62 255 4.0 6.0 0.00 0.00 0.00 75 1009.4
20260504173014 62 269 4.0 6.0 0.00 0.00 0.00 75 1009.2
20260504171525 61 276 3.0 5.0 0.00 0.00 0.00 77 1009.2
20260504170232 61 253 3.0 5.0 0.00 0.00 0.00 80 1009.5
20260504160255 62 269 2.0 3.0 0.00 0.00 0.00 68 1009.4
20260504150226 61 258 1.0 2.0 0.00 0.00 0.00 75 1009.4
20260504140239 59 283 0.0 0.0 0.00 0.00 0.00 73 1008.9
20260504130235 58 32 0.0 0.0 0.00 0.00 0.00 74 1008.5
20260504120251 58 52 0.0 0.0 0.00 0.00 0.00 75 1008.4
20260504110223 58 17 0.0 0.0 0.00 0.00 0.00 73 1008.4
20260504100257 60 113 0.0 1.0 0.00 0.00 0.00 70 1008.3
20260504081527 58 108 0.0 0.0 0.00 0.00 0.00 77 1007.9
20260504080232 58 32 0.0 0.0 0.00 0.00 0.00 77 1008.0
20260504070222 58 25 0.0 0.0 0.00 0.00 0.00 80 1007.8
20260504060227 57 288 0.0 0.0 0.00 0.00 0.00 86 1007.8
20260504050241 60 288 0.0 0.0 0.00 0.00 0.00 77 1008.1
20260504050001 59 288 0.0 0.0 0.00 0.00 0.00 77 1008.0
20260504044548 59 284 0.0 0.0 0.00 0.00 0.00 80 1008.0
20260504043226 59 274 0.0 0.0 0.00 0.00 0.00 80 1008.1
20260504043048 59 280 0.0 0.0 0.00 0.00 0.00 81 1007.9
20260504041600 58 280 0.0 0.0 0.00 0.00 0.00 82 1007.9
20260504040229 59 280 0.0 0.0 0.00 0.00 0.00 81 1008.0
20260504040126 59 280 0.0 0.0 0.00 0.00 0.00 81 1007.9
20260504034533 59 280 0.0 0.0 0.00 0.00 0.00 79 1007.8
20260504033239 60 266 0.0 0.0 0.00 0.00 0.00 79 1008.0
20260504033033 60 265 0.0 0.0 0.00 0.00 0.00 79 1007.9
20260504031555 62 264 0.0 0.0 0.00 0.00 0.00 76 1007.9
20260504030226 63 264 0.0 0.0 0.00 0.00 0.00 74 1008.0
20260504030012 63 264 0.0 0.0 0.00 0.00 0.00 74 1007.9
20260504024525 63 262 0.0 0.0 0.00 0.00 0.00 74 1008.0
20260504023234 65 277 0.0 2.0 0.00 0.00 0.00 72 1008.1
20260504023021 65 262 0.0 2.0 0.00 0.00 0.00 71 1008.0